Regional Weather Roundup
Issued by NWS Sioux Falls, SD

Home | Current Version | Previous Version | Text Only | Print | Product List | Glossary On
Versions: 1 2 3 4 5 6 7 8 9 10 11 12 13 14 15 16 17 18 19 20 21 22 23 24 25 26 27 28 29 30 31 32 33 34 35 36 37 38 39 40 41 42 43 44 45 46 47 48 49 50
000
ASUS43 KFSD 200710
RWRFSD

WEATHER ROUNDUP FOR SE SOUTH DAKOTA/SW MINNESOTA/NW IOWA
NATIONAL WEATHER SERVICE SIOUX FALLS SD
100 AM CST SAT DEC 20 2014

NOTE: "FAIR" INDICATES FEW OR NO CLOUDS BELOW 12,000 FEET WITH NO
SIGNIFICANT WEATHER AND OR OBSTRUCTIONS TO VISIBILITY.


SDZ038>040-050-052>070-200800-
SOUTHEAST SOUTH DAKOTA

CITY           SKY/WX    TMP DP  RH WIND       PRES   REMARKS
CHAMBERLAIN    FOG       13  11  91 CALM      29.99S VSB 1
HURON          CLOUDY    27  26  96 S10       30.02S FOG     WCI  17
MADISON        CLOUDY    28  28 100 S12       30.02F FOG     WCI  18
MITCHELL       CLOUDY    29  28  96 S10       30.05S FOG     WCI  20
SIOUX FALLS    CLOUDY    31  28  89 S8        30.05F WCI  23
WINNER         FAIR      33  21  61 SW7       29.97F WCI  27
YANKTON        CLOUDY    34  28  80 S6        30.06F WCI  29
$$

MNZ071-072-080-081-089-090-097-098-200800-
SOUTHWEST MINNESOTA

CITY           SKY/WX    TMP DP  RH WIND       PRES   REMARKS
FAIRMONT       CLOUDY    30  27  86 S14       30.12S WCI  20
JACKSON        CLOUDY    32  30  93 S13       30.11R WCI  22
LUVERNE        CLOUDY    32  30  93 S8        30.07F FOG     WCI  25
MARSHALL       CLOUDY    30  27  86 S20       30.07F WCI  18
MONTEVIDEO     CLOUDY    30  30 100 SW10      30.09S FOG     WCI  21
PIPESTONE      CLOUDY    30  28  93 S5        30.04S FOG     WCI  25
REDWOOD FALLS  CLOUDY    32  28  85 S13       30.10S FOG     WCI  22
TRACY          CLOUDY    31  29  92 S10       30.08S WCI  23
WINDOM         CLOUDY    30  28  93 S8G16     30.10S FOG     WCI  23
WORTHINGTON    CLOUDY    28  28 100 S9        30.08F WCI  20
$$

IAZ001>003-012>014-020>022-031-032-NEZ013-014-SDZ071-200800-
NORTHWEST IOWA

CITY           SKY/WX    TMP DP  RH WIND       PRES   REMARKS
CHEROKEE       CLOUDY    30  30 100 S9        30.11F FOG     WCI  22
DENISON        CLOUDY    30  30 100 S9        30.11F FOG     WCI  22
ESTHERVILLE    CLOUDY    29  28  96 S15       30.11S WCI  18
LE MARS        CLOUDY    32  30  93 SE8       30.10S WCI  25
ORANGE CITY    CLOUDY    32  28  86 S7        30.09S FOG     WCI  26
SHELDON        CLOUDY    30  30 100 S14       30.08F FOG     WCI  20
SIOUX CITY     CLOUDY    32  29  88 SE10      30.10F WCI  24
SPENCER        CLOUDY    31  28  89 S10       30.11F FOG     WCI  22
STORM LAKE     CLOUDY    28  28 100 S12       30.12S FOG     WCI  18
$$

ABBREVIATIONS USED IN REMARKS
   TC - TEMPERATURE IN CELSIUS
  WCI - WIND CHILL INDEX
   HX - HEAT INDEX
  VSB - VISIBILITY



USA.gov is the U.S. government's official web portal to all federal, state and local government web resources and services.